Flag for Sudan Weather past 2 weeks in Khartoum, Sudan

Now
N/A

Clear.


Feels Like: N/A
Forecast: 82 / 98 °F
Wind: No wind

Location: Khartoum Airport

Current Time: Aug 22, 2014 at 6:09:19 AM

Latest Report: Aug 22, 2014 at 5:30 AM


Visibility: 10 mi

Pressure: 29.77 "Hg

Humidity: N/A

Dew point: N/A

Location of KhartoumLocation

Historic Weather in Khartoum — Graph

°F

Khartoum temperature yesterday

Maximum temperature yesterday: 99 °F (at 5:00 PM)
Minimum temperature yesterday: 77 °F (at 5:00 AM)
Average temperature yesterday: 87 °F

Past Weeks' High & Low Weather Summary

 TemperatureHumidityPressure
High122 °F (Aug 8, 5:00 PM)100% (Aug 10, 7:00 AM)30.07 "Hg (Aug 10, 7:00 AM)
Low73 °F (Aug 9, 3:00 AM)17% (Aug 10, 11:00 AM)29.74 "Hg (Aug 13, 5:30 PM)
Average87 °F53%29.88 "Hg
* Reported Aug 7 5:30 AM — Aug 22 5:00 AM, Khartoum, Weather by CustomWeather, © 2014

Note: Actual official high and low records may vary slightly from our data, if they occured in-between our weather recording intervals... More about our weather records

Advertising

Khartoum weather history for previous 24 hours

 ConditionsComfort  
Time TempWeatherWind HumidityBarometerVisibility
5:00 AM
Aug 22
84 °FClear.8 mph58%29.77 "Hg10 mi
4:30 AMN/AClear.7 mphN/A29.77 "Hg10 mi
4:00 AM86 °FClear.12 mph52%29.77 "Hg10 mi
3:30 AMN/AClear.9 mphN/A29.74 "Hg10 mi
3:00 AM88 °FClear.12 mph43%29.77 "Hg10 mi
2:30 AMN/AClear.12 mphN/A29.77 "Hg10 mi
2:00 AM90 °FPassing clouds.7 mph41%29.77 "HgN/A
1:30 AMN/ARain.12 mphN/A29.77 "HgN/A
1:00 AM90 °FClear.10 mph41%29.80 "Hg10 mi
12:30 AMN/AClear.12 mphN/A29.83 "Hg10 mi
12:00 AM90 °FClear.12 mph41%29.83 "Hg10 mi
11:30 PM
Aug 21
N/AClear.9 mphN/A29.83 "Hg10 mi
11:00 PM90 °FClear.9 mph41%29.83 "Hg10 mi
10:30 PMN/AClear.12 mphN/A29.83 "Hg10 mi
9:30 PMN/AClear.9 mphN/A29.83 "Hg10 mi
9:00 PM93 °FClear.8 mph36%29.80 "Hg10 mi
8:30 PMN/AClear.9 mphN/A29.80 "Hg10 mi
8:00 PM95 °FClear.8 mph30%29.77 "Hg10 mi
7:30 PMN/AClear.8 mphN/A29.77 "Hg10 mi
7:00 PM95 °FSunny.8 mph30%29.77 "Hg10 mi
6:30 PMN/ASunny.12 mphN/A29.77 "Hg10 mi
6:00 PM97 °FSunny.12 mph27%29.77 "Hg10 mi
5:30 PMN/ASunny.12 mphN/A29.77 "Hg10 mi
5:00 PM99 °FSunny.8 mph24%29.80 "Hg10 mi
4:30 PMN/ASunny.8 mphN/A29.80 "Hg10 mi
4:00 PM97 °FSunny.8 mph27%29.83 "Hg10 mi
3:30 PMN/ASunny.12 mphN/A29.83 "Hg10 mi
2:30 PMN/ASunny.12 mphN/A29.86 "Hg10 mi
2:00 PM95 °FSunny.9 mph30%29.86 "Hg10 mi
1:30 PMN/ASunny.10 mphN/A29.86 "Hg10 mi
1:00 PM93 °FSunny.9 mph32%29.86 "Hg10 mi
12:30 PMN/ASunny.12 mphN/A29.89 "Hg10 mi
12:00 PM90 °FSunny.12 mph41%29.89 "Hg10 mi
11:30 AMN/ASunny.9 mphN/A29.92 "Hg10 mi
11:00 AM88 °FSunny.12 mph38%29.92 "Hg10 mi
10:30 AMN/ASunny.9 mphN/A29.92 "Hg10 mi
10:00 AM84 °FSunny.7 mph48%29.92 "Hg10 mi
9:30 AMN/ASunny.6 mphN/A29.92 "Hg10 mi
9:00 AM81 °FSunny.9 mph62%29.92 "Hg10 mi
8:30 AMN/ASunny.9 mphN/A29.92 "Hg10 mi
8:00 AM79 °FSunny.7 mph74%29.89 "Hg10 mi
7:00 AM77 °FSunny.8 mph79%29.89 "Hg10 mi
6:30 AMN/AClear.5 mphN/A29.86 "Hg10 mi
6:00 AM77 °FClear.8 mph74%29.86 "Hg10 mi
Weather by CustomWeather, © 2014

See weather overviewHow to use our weather pages